Simultaneous Nadir Overpasses (SNOs) Predictions

Prediction of SNOs between AQUA and NOAA-19 Satellite Orbit:

Table of predicted SNOs for the next 14.0 days since TLE Epoch: 4/6/2017
Index Date (AQUA) Time (AQUA) Lat,Lon (AQUA) SZA (AQUA ) Date (NOAA-19) Time (NOAA-19) Lat,Lon (NOAA-19) SZA (NOAA-19 ) Distance(km) Time Diff (sec)
1 04/07/2017 16:23:25 -80.94, 74.01 103.94 04/07/2017 16:23:12 -80.95, 74.13 103.94 2.33 13
2 04/09/2017 21:57:06 80.96, 170.32 75.27 04/09/2017 21:57:06 80.96, 170.41 75.25 1.87 0
3 04/12/2017 03:30:46 -80.95, -92.85 105.61 04/12/2017 03:30:56 -80.95, -92.82 105.61 1.09 10
4 04/14/2017 08:15:00 -80.95,-163.97 106.41 04/14/2017 08:13:48 -80.96,-163.90 106.38 1.41 72
5 04/14/2017 09:04:26 80.95, 3.73 73.58 04/14/2017 09:04:48 80.95, 3.69 73.58 1.29 22
6 04/16/2017 13:48:40 80.95, -67.43 72.80 04/16/2017 13:47:39 80.96, -67.29 72.82 2.53 61
7 04/16/2017 14:38:07 -80.96, 100.14 107.20 04/16/2017 14:38:40 -80.96, 100.11 107.22 0.58 33
8 04/18/2017 19:22:20 -80.97, 28.95 107.96 04/18/2017 19:21:31 -80.96, 28.97 107.95 1.18 49




NCC Satellite Simultaneous Nadir Overpasses (SNOs) Prediction Service
